This is the latest recevied weather packets stored in our database for station/object K2RMB. If no packets are shown the sender has not sent any weather packets the latest 10 day(s).
| Time | Temp. | Humidity | Pressure | Rain* | Wind** | Luminosity | Snow |
|---|---|---|---|---|---|---|---|
| 1777787765 | 1.11° C | 80% | 1011.8 hPa | 0 mm | - | 0 W/m² | - |
| 1777787461 | 1.11° C | 79% | 1011.8 hPa | 0 mm | - | 0 W/m² | - |
| 1777787157 | 1.11° C | 78% | 1011.5 hPa | 0 mm | - | 0 W/m² | - |
| 1777786854 | 1.11° C | 77% | 1011.8 hPa | 0 mm | - | 0 W/m² | - |
| 1777786552 | 1.67° C | 77% | 1011.8 hPa | 0 mm | - | 0 W/m² | - |
| 1777786250 | 1.67° C | 79% | 1011.8 hPa | 0 mm | - | 0 W/m² | - |
| 1777785947 | 1.67° C | 79% | 1012.1 hPa | 0 mm | - | 0 W/m² | - |
| 1777785643 | 1.67° C | 75% | 1011.8 hPa | 0 mm | - | 0 W/m² | - |
| 1777785338 | 1.67° C | 76% | 1012.1 hPa | 0 mm | - | 0 W/m² | - |
| 1777785036 | 1.67° C | 73% | 1012.1 hPa | 0 mm | - | 0 W/m² | - |
| 1777784731 | 1.67° C | 74% | 1012.5 hPa | 0 mm | - | 0 W/m² | - |
| 1777784430 | 1.67° C | 76% | 1012.1 hPa | 0 mm | - | 0 W/m² | - |
| 1777784127 | 1.67° C | 77% | 1012.1 hPa | 0 mm | - | 0 W/m² | - |
| 1777783824 | 1.67° C | 76% | 1012.1 hPa | 0 mm | - | 0 W/m² | - |
| 1777783520 | 2.22° C | 74% | 1011.8 hPa | 0 mm | - | 0 W/m² | - |
| 1777783218 | 3.33° C | 68% | 1012.1 hPa | 0 mm | - | 0 W/m² | - |
| 1777782914 | 3.33° C | 67% | 1012.1 hPa | 0 mm | - | 0 W/m² | - |
| 1777782610 | 3.33° C | 67% | 1012.5 hPa | 0 mm | - | 0 W/m² | - |
| 1777782307 | 3.33° C | 67% | 1012.5 hPa | 0 mm | - | 0 W/m² | - |
| 1777782003 | 3.33° C | 67% | 1012.5 hPa | 0 mm | - | 0 W/m² | - |
| 1777781700 | 3.33° C | 67% | 1012.5 hPa | 0 mm | - | 0 W/m² | - |
| 1777781399 | 3.33° C | 67% | 1012.5 hPa | 0 mm | - | 0 W/m² | - |
| 1777781095 | 3.33° C | 67% | 1012.5 hPa | 0 mm | - | 0 W/m² | - |
| 1777780792 | 3.33° C | 67% | 1012.5 hPa | 0 mm | - | 0 W/m² | - |
| 1777780489 | 3.33° C | 67% | 1012.5 hPa | 0 mm | - | 0 W/m² | - |
* Rain latest hour (hover to see other rain measurements)
** Current wind speed in m/s (hover to see current wind gust speed)